Regional Weather Roundup
Issued by NWS

Home | Current Version | Previous Version | Text Only | Print | Product List | Glossary On
Versions: 1 2 3 4 5 6 7 8 9 10 11 12 13 14 15 16 17 18 19 20 21 22 23 24 25 26 27 28 29 30 31 32 33 34 35 36 37 38 39 40 41 42 43 44 45 46 47 48 49 50
000
ASHW40 PHFO 271710
RWRHI

WEATHER ROUNDUP FOR HAWAII
NATIONAL WEATHER SERVICE HONOLULU HI
700 AM HST WED AUG 27 2014

THIS IS AN AUTOMATED REPORT THAT HAS NOT BEEN QUALITY CONTROLLED.

NOTE..."FAIR" INDICATES FEW OR NO CLOUDS BELOW 12,000 FEET WITH NO
SIGNIFICANT WEATHER AND/OR OBSTRUCTIONS TO VISIBILITY.

* - THESE SITES REPORT LIMITED FIELDS

HIZ001>004-271800-
KAUAI-NIIHAU-

CITY           SKY/WX    TMP DP  RH WIND       PRES   REMARKS
LIHUE APT      MOCLDY    78  68  71 NE13      29.95R
PORT ALLEN*      N/A     75 N/A N/A NE10G16     N/A
POIPU*           N/A     77 N/A N/A NE8G15      N/A
PRINCEVILLE*   NOT AVBL
KOKOLE POINT*  NOT AVBL
MOLOAA DAIRY*  NOT AVBL
WAIMEA HTS*    NOT AVBL
PUU OPAE*      NOT AVBL
PUU LUA*       NOT AVBL
MAKAHA RIDGE*  NOT AVBL
$$

HIZ005>011-271800-
OAHU-

CITY           SKY/WX    TMP DP  RH WIND       PRES   REMARKS
HONOLULU       PTCLDY    78  66  66 N7        29.92R
KALAELOA       CLEAR     74  66  76 VRB5      29.93R
KANEOHE MCB    CLEAR     73  67  80 E10       29.94R
WHEELER FIELD  FAIR      68  64  88 NW3       29.95R
BELLOWS*       NOT AVBL
KAHUKU*        NOT AVBL
WHEELER*       NOT AVBL
WAIANAE HARBOR NOT AVBL
DILLINGHAM*      N/A     66  64  94 NE1         N/A
KAHUKU TRN*      N/A     73  70  88 E7G16       N/A
KAWAILOA*      NOT AVBL
KII*             N/A     79  72  78 NE13G18     N/A
MAKUA RANGE*     N/A     75  64  69 E3G13       N/A
OAHU FOREST NW NOT AVBL
SCHOFIELD BRK*   N/A     66  64  94 W1          N/A
SCHOFIELD S*   NOT AVBL
WAIANAE VLY*   NOT AVBL
KUAOKALA*      NOT AVBL
HONOULIUULI*   NOT AVBL
MOKUOLOE IS*     N/A    N/A N/A N/A MISG        N/A
PALEHUA*       NOT AVBL
WAIAWA PHB*    NOT AVBL
$$

HIZ012>013-271800-
MOLOKAI-

CITY           SKY/WX    TMP DP  RH WIND       PRES   REMARKS
MOLOKAI AIRPT  MOSUNNY   70  70 100 NE7       29.94R
KALAUPAPA      NOT AVBL
MAKAPULAPAI*   NOT AVBL
MOLOKAI 1*     NOT AVBL
PUU ALII*      NOT AVBL
$$

HIZ016-271800-
KAHOOLAWE-

CITY           SKY/WX    TMP DP  RH WIND       PRES   REMARKS
KAHOOLAWE*     NOT AVBL
HAKIOAWA*      NOT AVBL
HONOKANAIA*      N/A     77  65  66 NE6G15    29.92R
KANELOA*         N/A     75  64  69 E10G20    30.01
KEALIALALO*    NOT AVBL
LUA MAKIKA*    NOT AVBL
$$

HIZ014>015-271800-
LANAI-

CITY           SKY/WX    TMP DP  RH WIND       PRES   REMARKS
LANAI CITY     FAIR      72  65  78 NE16      29.97R
LANAI 1*       NOT AVBL
$$

HIZ017>028-271800-
MAUI-

CITY           SKY/WX    TMP DP  RH WIND       PRES   REMARKS
KAHULUI        MOSUNNY   77  65  66 NE10      29.93R
KAPALUA-W MAUI MOSUNNY   73  66  78 N8        29.93R
HANA AIRPORT   NOT AVBL
HANA*          NOT AVBL
HALEAKALA SUMM NOT AVBL
MAALAEA BAY*   NOT AVBL
HALEAKALA*     NOT AVBL
KAUPO GAP*     NOT AVBL
KULA 1*          N/A     51  32  48 E3          N/A
$$

HIZ023>026-271800-
BIG ISLAND OF HAWAII COAST AND LOWER SLOPES-

CITY           SKY/WX    TMP DP  RH WIND       PRES   REMARKS
KAILUA KONA    SUNNY     78  66  66 CALM      29.87R
HILO           MOSUNNY   72  69  90 SW6       29.92R
HONOKAA*       NOT AVBL
KAWAIHAE MWT*  NOT AVBL
KAWAIHAE*        N/A     77 N/A N/A NE3         N/A
SOUTH POINT*   NOT AVBL
UPOLU AIRPORT* NOT AVBL
KAMUELA*       NOT AVBL
HAKALAU*         N/A     50  49  95 NW2         N/A
KALOKO-HONOKO* NOT AVBL
PALI 2*          N/A     66  59  77 N17G24      N/A
KEALAKOMO*       N/A     73  66  78 VRB10G21    N/A
KAUPULEHU*     NOT AVBL
KAPAPALA*        N/A     62  59  91 CALM        N/A
LOWER KAHUKU*  NOT AVBL
PUHE CS*       NOT AVBL
PUHO CS*       NOT AVBL
PTA KEAMUKU*     N/A     63  52  67 E15G23      N/A
WAIKOLOA*      NOT AVBL
$$

HIZ027>028-271800-
BIG ISLAND OF HAWAII INTERIOR AND SUMMMITS-

CITY           SKY/WX    TMP DP  RH WIND       PRES   REMARKS
BRADSHAW FIELD MOSUNNY   49  36  61 SE3       30.24R
MK VISITOR CEN NOT AVBL
MAUNA KEA*     NOT AVBL
MAUNA LOA*     NOT AVBL
MAUNA LOA 1*   NOT AVBL
PTA KIPUKA*      N/A     54  48  82 SE3         N/A
PTA RANGE 17*    N/A     55  50  82 E7          N/A
PTA WEST*        N/A     57  52  82 SE12        N/A
NENE CABIN*    NOT AVBL
AHUMOA*        NOT AVBL
PTA PORTABLE*  NOT AVBL
PUU MALI*      NOT AVBL
$$

HIC003-271800-
NORTHWEST ISLANDS-

CITY           SKY/WX    TMP DP  RH WIND       PRES   REMARKS
MIDWAY ISLAND  PTCLDY    81  73  78 E16G24    30.12R
MIDWAY NOS*    NOT AVBL
FRENCH FRIGATE NOT AVBL
$$

PHZ110>124-180-271800-
BUOY REPORTS

STATION/POSITION TIME  TEMP    WIND        PRES    WAVE   SWELL
                       AIR SEA DIR/SP/G            HT/PER HT/DIR
                 (UTC) (F)     (DEG/KT/KT) (MB)    (FT/S) (FT/D)
BUOY 51001       NOT AVBL
BUOY 51101       NOT AVBL
BUOY 51100       1700   78 79   50/ 12/ 14 1013.8R
BUOY 51003       1600   80 82   50/  8/ 10 1011.8R   5/ 8   5
BUOY 51004       1644   78 80   40/ 10/ 12 1011.3R   5/ 8   5/ 70
BARBERS PT BUOY  NOT AVBL
WAIMEA BAY BUOY  1700      81                N/A     4/ 8   2/ 30
KAILUA BAY BUOY  1700      81                N/A     6/ 8   2/ 80
LANAI BUOY       NOT AVBL
BARBERS PT 2     1700      81                N/A     4/12   2/180
PAUWELA MAUI     1700      80                N/A     5/ 8   2/ 80
HILO             NOT AVBL
KANEOHE BAY BUOY 1700      81                N/A     5/ 8   2/ 60
HANALEI KAUAI    NOT AVBL
KAHULUI HARBOR   1700   78 81   20/ 11/ 13 1013.1R
HONOLULU HARBOR  1700   78      CALM  /  3 1013.4R
KILO NALU        NOT AVBL
HILO HARBOR      1700   74     290/  7/  8 1012.7R
MOKUOLOE         1700   78 82   80/  9/ 12 1013.7R
NAWILIWILI       1700      82                N/A
WHOTS BUOY       NOT AVBL
BUOY 51028       NOT AVBL
$$

......................KEY........................................
  SKY/WX - SKY CONDITIONS/PRESENT WEATHER
  TMP    - TEMPERATURE IN FAHRENHEIT
  DWPT   - DEWPOINT IN FAHRENHEIT
  RH     - RELATIVE HUMIDITY IN PERCENT
  WIND   - DIRECTION AND SPEED /MPH FOR ISLANDS...KTS FOR BUOYS/
  PRES   - MEAN SEA LEVEL PRESSURE IN INCHES OF HG
  VSB    - VISIBILITY IN MILES
  HX     - HEAT INDEX
  WCI    - WIND CHILL INDEX
  VRB    - VARIABLE WIND DIRECTION
  N/A    - NOT AVAILABLE



USA.gov is the U.S. government's official web portal to all federal, state and local government web resources and services.